Regional Weather Roundup
Issued by NWS

Home | Current Version | Previous Version | Text Only | Print | Product List | Glossary Off
Versions: 1 2 3 4 5 6 7 8 9 10 11 12 13 14 15 16 17 18 19 20 21 22 23 24 25 26 27

000
ASUS45 KPSR 261810
RWRAZ

ARIZONA HOURLY REGIONAL WEATHER ROUNDUP
NATIONAL WEATHER SERVICE PHOENIX AZ
1100 AM MST THU MAY 26 2016

NOTE: FAIR INDICATES FEW OR NO CLOUDS BELOW 12,000 FEET WITH NO
SIGNIFICANT WEATHER AND/OR OBSTRUCTIONS TO VISIBILITY.

AZZ001>003-036-261900-
NORTHWEST ARIZONA

CITY           SKY/WX    TMP DP  RH WIND       PRES   REMARKS
BULLHEAD CITY  SUNNY     86  41  20 SW6       29.94S
KINGMAN        SUNNY     71  28  20 W9G16     30.00R
6HR MIN TEMP:  48; 6HR MAX TEMP:  71;

$$

AZZ004>008-015-016-018-261900-
NORTH CENTRAL ARIZONA

CITY           SKY/WX    TMP DP  RH WIND       PRES   REMARKS
GRAND CANYON   PTSUNNY   56  25  30 NW8       30.06R
6HR MIN TEMP:  34; 6HR MAX TEMP:  59;

WILLIAMS       PTSUNNY   57  23  26 SW8G21    30.15R
PRESCOTT       MOSUNNY   65  21  18 N9G21     30.03F
6HR MIN TEMP:  41; 6HR MAX TEMP:  65;

FLAGSTAFF      PTSUNNY   52  24  33 SW8       30.07S
6HR MIN TEMP:  37; 6HR MAX TEMP:  53;

PAYSON         SUNNY     63  21  20 W10G16    30.06S
PAGE           PTSUNNY   67  26  21 CALM      29.92S
6HR MIN TEMP:  60; 6HR MAX TEMP:  70;

$$

AZZ009>014-017-261900-
NORTHEAST ARIZONA

CITY           SKY/WX    TMP DP  RH WIND       PRES   REMARKS
WINSLOW        SUNNY     66  27  23 W9G20     30.00F
6HR MIN TEMP:  47; 6HR MAX TEMP:  67; 6HR PCP: TRACE;

SAINT JOHNS    MOSUNNY   62  18  18 W9G23     30.02S
6HR MIN TEMP:  39; 6HR MAX TEMP:  62;

WINDOW ROCK    PTSUNNY   56  18  22 SW12      30.02S
6HR MIN TEMP:  35; 6HR MAX TEMP:  59;

SHOW LOW       SUNNY     55  18  22 SW12      30.08R
$$

AZZ023-261900-
GREATER PHOENIX AREA

CITY           SKY/WX    TMP DP  RH WIND       PRES   REMARKS
PHOENIX        MOSUNNY   76  36  23 NW7       29.93S
6HR MIN TEMP:  65; 6HR MAX TEMP:  77;

BUCKEYE        SUNNY     75  36  23 SW8       29.96S
GLENDALE       SUNNY     73  37  27 S8        29.96S
LUKE AFB       SUNNY     78  39  25 SW12G20   29.93S
6HR MIN TEMP:  61; 6HR MAX TEMP:  78; 6HR PCP: TRACE;

DEER VALLEY    SUNNY     74  36  25 SW8       29.95S
6HR MIN TEMP:  61; 6HR MAX TEMP:  74;

SCOTTSDALE     SUNNY     76  35  22 W8        29.96S
6HR MIN TEMP:  63; 6HR MAX TEMP:  77;

MESA-GATEWAY   MOSUNNY   75  37  25 W6        29.95F
CHANDLER       MOSUNNY   77  34  20 W5        29.94F
$$

AZZ027-028-261900-
SOUTHWEST MARICOPA COUNTY AND PINAL COUNTY

CITY           SKY/WX    TMP DP  RH WIND       PRES   REMARKS
CASA GRANDE    SUNNY     75  34  22 N5        29.96S
6HR MIN TEMP:  57; 6HR MAX TEMP:  75;

GILA BEND      SUNNY     77  37  22 W6        29.93S
6HR MIN TEMP:  58; 6HR MAX TEMP:  78;

$$

AZZ503-504-507>509-261900-
SOUTHEAST ARIZONA

CITY           SKY/WX    TMP DP  RH WIND       PRES   REMARKS
TUCSON         SUNNY     74  24  15 VRB3      30.00S
6HR MIN TEMP:  56; 6HR MAX TEMP:  74;

DAVIS-MONTHAN  MOSUNNY   72  23  16 VRB7      29.98S
6HR MIN TEMP:  53; 6HR MAX TEMP:  73;

RYAN FIELD     SUNNY     73  25  16 S3        29.99S
NOGALES        SUNNY     71  16  12 VRB3      30.01F
6HR MIN TEMP:  47; 6HR MAX TEMP:  73;

SIERRA VISTA   SUNNY     69  12  11 W9G23     30.03F
6HR MIN TEMP:  48; 6HR MAX TEMP:  70;

DOUGLAS        SUNNY     75  12   9 SW21G33   30.00S
SAFFORD        SUNNY     74  20  13 VRB5      29.96S
6HR MIN TEMP:  60; 6HR MAX TEMP:  74;

$$

AZZ020-021-025-026-031-261900-
SOUTHWEST ARIZONA

CITY           SKY/WX    TMP DP  RH WIND       PRES   REMARKS
YUMA           SUNNY     78  43  28 W6        29.94F
6HR MIN TEMP:  61; 6HR MAX TEMP:  79;

$$

CAZ031-033-041-043-047-048-061-261900-
SOUTHERN CALIFORNIA

CITY           SKY/WX    TMP DP  RH WIND       PRES   REMARKS
DOWNTOWN L.A.  MOSUNNY   70  51  51 VRB3      30.05F
6HR MIN TEMP:  58; 6HR MAX TEMP:  71;

L.A. AIRPORT   MOSUNNY   66  52  60 W12       30.06F
6HR MIN TEMP:  56; 6HR MAX TEMP:  68;

SAN DIEGO      PTSUNNY   65  50  58 SW7       30.09S
6HR MIN TEMP:  62; 6HR MAX TEMP:  65;

BURBANK        SUNNY     66  49  54 S3        30.05F
6HR MIN TEMP:  53; 6HR MAX TEMP:  66;

ONTARIO        MOSUNNY   67  44  43 VRB7      30.05F
6HR MIN TEMP:  51; 6HR MAX TEMP:  67;

RIVERSIDE      SUNNY     67  45  45 VRB6      30.05F
6HR MIN TEMP:  53; 6HR MAX TEMP:  67;

PALM SPRINGS   MOSUNNY   77  39  25 W9G20     29.93F
6HR MIN TEMP:  61; 6HR MAX TEMP:  77;

EL CENTRO NAS  SUNNY     80  37  21 W5        29.95S
6HR MIN TEMP:  61; 6HR MAX TEMP:  80;

IMPERIAL       SUNNY     81  40  23 N8        29.92F
6HR MIN TEMP:  59; 6HR MAX TEMP:  81;

BLYTHE         SUNNY     79  43  27 VRB3      29.92F
6HR MIN TEMP:  57; 6HR MAX TEMP:  79;

NEEDLES        SUNNY     82  38  20 VRB6      29.92S
6HR MIN TEMP:  65; 6HR MAX TEMP:  83;

$$

NVZ020-UTZ003-261900-
SOUTHERN NEVADA-UTAH

CITY           SKY/WX    TMP DP  RH WIND       PRES   REMARKS
LAS VEGAS      MOSUNNY   76  35  22 CALM      29.91S
6HR MIN TEMP:  61; 6HR MAX TEMP:  76;

SALT LAKE CITY MOSUNNY   66  43  43 W14G20    29.98F
6HR MIN TEMP:  48; 6HR MAX TEMP:  66;

$$

NMZ009-TXZ055-261900-
NEW MEXICO-WEST TEXAS

CITY           SKY/WX    TMP DP  RH WIND       PRES   REMARKS
ALBUQUERQUE    MOSUNNY   70  18  13 SW8       29.93F
6HR MIN TEMP:  49; 6HR MAX TEMP:  70;

EL PASO        MOSUNNY   79  31  17 SW17G29   29.94F
6HR MIN TEMP:  70; 6HR MAX TEMP:  80;

$$


........................KEY........................
SKY/WX - SKY CONDITION/WEATHER
TMP    - TEMPERATURE IN FAHRENHEIT
DP     - DEW POINT IN FAHRENHEIT
RH     - RELATIVE HUMIDITY IN PERCENT
WIND   - DIRECTION AND SPEED IN MILES PER HOUR (MPH)
VRB    - VARIABLE WIND DIRECTION
PRES   - MEAN SEA LEVEL PRESSURE IN INCHES OF MERCURY
         F - FALLING PRESSURE   R - RISING PRESSURE
         S - STEADY PRESSURE
VSB    - VISIBILITY IN MILES
HX     - HEAT INDEX IN FAHRENHEIT
WCI    - WIND CHILL INDEX IN FAHRENHEIT
TC     - TEMPERATURE IN CELSIUS WHICH IS ALSO KNOWN AS
         TEMPERATURE IN CENTIGRADE
AFB    - AIR FORCE BASE
         LUKE AFB IS LUKE AIR FORCE BASE
         DAVIS-MONTHAN IS DAVIS-MONTHAN AIR FORCE BASE
NAS    - NAVAL AIR STATION
         EL CENTRO NAS IS EL CENTRO NAVAL AIR STATION
N/A    - NOT AVAILABLE





USA.gov is the U.S. government's official web portal to all federal, state and local government web resources and services.